This demonstration page uses our WeatherBlox Daily Observations layout. Learn more.

Left ArrowRight Arrow

Hourly Observations for May 13, 2021

Temp ( °F °C ) Dew Point ( °F °C ) Humidity (%) Winds ( mph kmh ) Pressure ( in mb ) Visibility ( mi km ) Precip ( " mm )
12:56 am 00:56 Mostly Clear 48 8.9 38 3.3 68 68 S 9 15 30.35 1028 10 16 0.00 0.00
1:56 am 01:56 Cloudy 49 9.4 39 3.9 69 69 S 9 15 30.34 1027 10 16 0.00 0.00
2:56 am 02:56 Cloudy with Light Rain 50 10 39 3.9 66 66 S 14 22 30.32 1027 10 16 0.00 0.00
3:56 am 03:56 Cloudy 50 10 38 3.3 63 63 S 13 20 30.32 1027 10 16 0.00 0.00
4:56 am 04:56 Cloudy 49 9.4 38 3.3 66 66 S 15 24 30.32 1027 10 16 0.00 0.00
5:56 am 05:56 Cloudy 48 8.9 37 2.8 66 66 S 14 22 30.31 1027 10 16 0.00 0.00
6:56 am 06:56 Mostly Sunny 46 7.8 38 3.3 73 73 S 13 20 30.32 1027 10 16 0.00 0.00
7:56 am 07:56 Cloudy 49 9.4 38 3.3 66 66 S 16 26 30.32 1027 10 16 0.00 0.00
8:56 am 08:56 Sunny 53 11.7 40 4.4 61 61 S 18 30 30.31 1026 10 16 0.00 0.00
9:56 am 09:56 Sunny 57 13.9 41 5 55 55 S 24 39 30.29 1026 10 16 0.00 0.00
10:56 am 10:56 Sunny 61 16.1 43 6.1 52 52 S 20 31 30.28 1025 10 16 0.00 0.00
11:56 am 11:56 Mostly Cloudy 64 17.8 44 6.7 48 48 S 21 33 30.26 1025 10 16 0.00 0.00
12:56 pm 12:56 Mostly Cloudy 66 18.9 44 6.7 45 45 S 21 33 30.23 1024 10 16 0.00 0.00
1:56 pm 13:56 Mostly Cloudy 68 20 44 6.7 42 42 S 18 30 30.20 1023 10 16 0.00 0.00
2:56 pm 14:56 Partly Cloudy 69 20.6 45 7.2 42 42 S 21 33 30.17 1022 10 16 0.00 0.00
3:56 pm 15:56 Mostly Sunny 71 21.7 44 6.7 38 38 S 15 24 30.14 1021 10 16 0.00 0.00
4:56 pm 16:56 Mostly Sunny 71 21.7 45 7.2 39 39 S 21 33 30.11 1020 10 16 0.00 0.00
5:56 pm 17:56 Sunny 68 20 44 6.7 42 42 S 25 41 30.09 1019 10 16 0.00 0.00
6:56 pm 18:56 Sunny 67 19.4 45 7.2 45 45 S 22 35 30.07 1018 10 16 0.00 0.00
7:56 pm 19:56 Sunny 65 18.3 45 7.2 49 49 SSE 17 28 30.07 1018 10 16 0.00 0.00
8:56 pm 20:56 Mostly Cloudy 63 17.2 45 7.2 52 52 SSE 17 28 30.09 1019 10 16 0.00 0.00
9:56 pm 21:56 Cloudy with Light Rain 59 15 49 9.4 69 69 S 13 20 30.16 1021 10 16 0.00 0.00
10:11 pm 22:11 Cloudy with Nearby Thunderstorms 57 14 52 11 82 82 SW 9 15 30.15 1021 8 13 0.07 1.78
10:33 pm 22:33 Cloudy with Rain 55 13 52 11 88 88 SSE 21 33 30.14 1021 7 11 0.17 4.32
10:56 pm 22:56 Cloudy with Light Rain 55 12.8 51 10.6 87 87 SSE 13 20 30.17 1022 10 16 0.23 5.84
11:56 pm 23:56 Cloudy 54 12.2 50 10 87 87 SE 17 28 30.17 1022 10 16 0.03 0.76

Powered by AerisWeather